Location: Mount Kobau Star Party
(49.1167°N, 119.7333°W)
Time: 09:53:06
(UTC-08:00)

Envisat - Visible Passes

Search period start: 12 December 2017 00:00
Search period end: 22 December 2017 00:00
Orbit: 764 x 766 km, 98.2° (Epoch: 11 December)

Date Brightness Start Highest point End Pass type
(mag) Time Alt. Az. Time Alt. Az. Time Alt. Az.
12 Dec 6.3 06:54:42 10° ENE 06:55:23 10° E 06:56:04 10° E visible
14 Dec 5.4 18:45:12 10° N 18:45:12 10° N 18:45:17 10° N visible
16 Dec 5.5 19:11:05 10° N 19:11:05 10° N 19:11:07 10° N visible
17 Dec 5.9 07:07:23 10° NE 07:10:06 14° E 07:12:47 10° ESE visible
17 Dec 5.3 18:33:55 10° N 18:33:55 10° N 18:34:01 10° N visible
19 Dec 5.4 18:59:46 11° N 18:59:46 11° N 18:59:55 10° N visible
20 Dec 6.1 06:57:13 10° ENE 06:58:48 11° E 07:00:24 10° ESE visible
20 Dec 5.2 18:22:34 11° N 18:22:34 11° N 18:22:42 10° N visible
21 Dec 5.5 19:25:35 10° N 19:25:35 10° N 19:25:40 10° N visible
